Starlink 34564

operational
NORAD ID: 64852 Int'l Des: 2025-152 Owner: SPXS Country: US Constellation: starlink
LEOCIRCULARRETROGRADESSO

关于 Starlink 34564

正在加载描述...

实时位置

正在加载3D地球...

即将过境

高度历史

Altitude vs Time

uPlot chart will show altitude changes over time

两行轨道根数

1 64852U 25152L 25341.02196393 .00010584 00000-0 73626-3 0 9993
2 64852 97.6032 194.1655 0001759 77.2292 282.9131 15.05668709 21473
Epoch: Dec 7, 2025 • Age: 21 hours

当前状态

高度 551.8 km
速度 7.59 km/s
星下点 13.79°N, 29.96°W
发射日期 Jul 19, 2025
运行时间 0.3 years
类型 internet

技术详情

分类 Payload
质量 575.00 kg
干质量 530.00 kg
总质量 575.00 kg
长度 0.30 m
直径 4.10 m
跨度 29.00 m
形状 Box + pan
制造商 SPXS
平台类型 Starlink V2MO
阶段状态 In Orbit
所有者/国家 SPXS/US

大型星座

Loading constellations...